Preview of NWS' New Version of Forecast
This preview is not operational and should not be used for support decisions.

Regional Weather Roundup (RWR)

Issued by National Weather Service (NWS)

                            
000
ASUS42 KTBW 231516
RWRFL 
FLORIDA REGIONAL WEATHER ROUNDUP
NATIONAL WEATHER SERVICE TAMPA BAY RUSKIN FL
1100 AM EDT TUE APR 23 2019

NOTE: "FAIR" INDICATES FEW OR NO CLOUDS BELOW 12,000 FEET WITH NO
SIGNIFICANT WEATHER AND/OR OBSTRUCTIONS TO VISIBILITY.

FLZ001>010-012>015-112-114-115-231600-
PANHANDLE FLORIDA
  
CITY           SKY/WX    TMP DP  RH WIND       PRES   REMARKS
PENSACOLA      FAIR      74  51  44 NE7       30.15S                  
PENSACOLA NAS  PTSUNNY   75  55  49 E7        30.15S                  
MILTON NAS     PTSUNNY   74  51  44 VRB3      30.17S                  
CRESTVIEW      FAIR      74  43  32 N3        30.19R                  
DUKE FIELD     FAIR      74  48  39 NE3       30.17R                  
VALPARAISO     FAIR      76  46  33 CALM      30.16R                  
MARY ESTHER    MOSUNNY   76  52  43 CALM      30.15R                  
PANAMA CITY    FAIR      75  48  38 W6        30.16R                  
TYNDALL AFB    FAIR      76  49  38 E3        30.15S                  
APALACHICOLA   FAIR      77  50  38 VRB3      30.16S                  

STATION/POSITION SKY/WX   TEMP    WIND        PRES    WAVE   SWELL
                          AIR SEA DIR/SP/G            HT/PER HT/PER
                          (F)     (DEG/KT/KT) (MB)    (FT/S) (FT/S)
30.1N   87.6W                                 1021.6R   1
29.2N   88.2W                     110/  8/ 12 1021.8R   1/ 4
PANAMA CITY BEAC           73 68   10/  5/  6 1021.6R
TOWER C          NOT AVBL

$$
FLZ011-016>038-118-127-128-134-139-239-231600-
NORTH FLORIDA
  
CITY           SKY/WX    TMP DP  RH WIND       PRES   REMARKS
MARIANNA       FAIR      75  54  47 N6        30.15S                  
TALLAHASSEE    FAIR      77  53  43 CALM      30.16S                  
PERRY          FAIR      76  53  44 CALM      30.17S                  
LIVE OAK       SUNNY     73  54  49 CALM      30.16R                  
CROSS CITY     FAIR      76  50  39 CALM      30.17R                  
LAKE CITY      FAIR      73  50  43 CALM      30.16S                  
GAINESVILLE    FAIR      78  51  38 S7        30.19R                  
PALATKA        FAIR      77  48  36 CALM      30.17S                  
MAYPORT NAS    PTSUNNY   76  54  46 VRB6      30.16R                  
JACKSONVILLE   FAIR      75  50  41 VRB3      30.15S                  
JAX NAS        FAIR      76  49  38 S7        30.17R                  
JAX CECIL      SUNNY     81  52  36 S6        30.16R                  
FERNANDINA BEA FAIR      75  56  51 SW7       30.16S                  
ST AUGUSTINE   FAIR      76  58  53 VRB5      30.18R                  
PALM COAST     SUNNY     75  55  50 CALM      30.16S                  

STATION/POSITION SKY/WX   TEMP    WIND        PRES    WAVE   SWELL
                          AIR SEA DIR/SP/G            HT/PER HT/PER
                          (F)     (DEG/KT/KT) (MB)    (FT/S) (FT/S)
SHELL POINT      NOT AVBL
KEATON BEACH               67     250/  7/  8 1021.9R
CEDAR KEY                  69     150/  2/  3 1021.6R
FERNANDINA                 78 70  180/  4/  8 1021.8R
30.7N   81.3W                 69                N/A     2/ 9
MAYPORT                    73 71  250/  5/  5 1021.4R
31.4N   80.9W              68 68  210/  4/  4 1021.3R   2/ 9   2/ 9
ST AUGUSTINE               72 73  110/  4/  5 1021.9R

$$
FLZ040-043>046-052-053-057-058-063-144-231600-
INTERIOR CENTRAL FLORIDA
  
CITY           SKY/WX    TMP DP  RH WIND       PRES   REMARKS
OCALA          FAIR      76  50  40 S5        30.17S                  
LEESBURG       FAIR      74  54  49 S6        30.17S                  
SANFORD        FAIR      75  55  49 E5        30.16S                  
ORLANDO EXEC   FAIR      76  52  43 CALM      30.16S                  
ORLANDO INTL   FAIR      77  55  46 S5        30.15S                  
KISSIMMEE      FAIR      75  56  51 SE3       30.17S                  
WINTER HAVEN   FAIR      75  55  49 W3        30.17S                  
LAKELAND       SUNNY     73  52  46 SE3       30.16S                  
BARTOW         SUNNY     75  52  43 CALM      30.15S                  
SEBRING        FAIR      76  59  55 NE6       30.15S                  
OKEECHOBEE     FAIR      79  61  53 NE6       30.13S                  

$$
FLZ041-047-054-059-064-141-147-231600-
EAST CENTRAL FLORIDA
  
CITY           SKY/WX    TMP DP  RH WIND       PRES   REMARKS
ORMOND BEACH   SUNNY     73  57  56 CALM      30.16S                  
DAYTONA BEACH  FAIR      76  58  53 CALM      30.16S                  
DELAND         FAIR      75  52  43 E3        30.16S                  
NEW SMYRNA BEA MOSUNNY   77  57  50 CALM      30.17R                  
JFK SPACE CTR  FAIR      76  60  55 N6        30.14S                  
TITUSVILLE     SUNNY     79  55  44 NE6       30.16R                  
CAPE CANAVERAL FAIR      78  56  47 N6        30.13S                  
PATRICK AFB    FAIR      77  62  59 N6        30.14S                  
MELBOURNE      FAIR      77  61  57 N9        30.14S                  
VERO BEACH     FAIR      78  56  46 VRB6      30.14R                  
FT PIERCE      FAIR      78  56  46 NE8       30.13S                  
STUART         MOSUNNY   77  55  47 E7        30.14S                  

STATION/POSITION SKY/WX   TEMP    WIND        PRES    WAVE   SWELL
                          AIR SEA DIR/SP/G            HT/PER HT/PER
                          (F)     (DEG/KT/KT) (MB)    (FT/S) (FT/S)
28.5N   80.2W              73     340/  8/ 10 1021.0R   3/ 9   3/ 9
28.9N   78.5W              72 78   30/  8/ 12 1021.1R   3/ 9   3/ 9
TRIDENT PIER               73 76  280/  3/  5 1022.0R
28.4N   80.5W                 76                N/A     2/ 9
27.5N   80.2W                 74                N/A     3/ 9   2/11

$$
FLZ050-056-061-142-242-148-248-149-249-151-251-155-255-
160-260-231600-
WEST CENTRAL FLORIDA
  
CITY           SKY/WX    TMP DP  RH WIND       PRES   REMARKS
CRYSTAL RIVER  FAIR      75  55  50 SW5       30.16S                  
INVERNESS      FAIR      75  54  46 CALM      30.17S                  
BROOKSVILLE    FAIR      77  50  38 SE6       30.17S                  
CLEARWATER AIR FAIR      73  54  49 SE3       30.16S                  
ST PETE CLEARW FAIR      72  60  66 NE7       30.16R                  
TAMPA INTL     FAIR      76  59  55 W6        30.16S                  
TAMPA EXEC     FAIR      75  54  46 CALM      30.17S                  
PLANT CITY     FAIR      79  52  38 CALM      30.18R                  
MACDILL AFB    FAIR      75  56  52 S6        30.15S                  
PETER O KNIGHT CLOUDY    77  61  57 SW5       30.17R                  
ST PETERSBURG  FAIR      70  61  73 E8        30.14S                  
SARASOTA       FAIR      77  53  43 E3        30.13S                  
VENICE         FAIR      79  55  44 N5        30.15S                  

STATION/POSITION SKY/WX   TEMP    WIND        PRES    WAVE   SWELL
                          AIR SEA DIR/SP/G            HT/PER HT/PER
                          (F)     (DEG/KT/KT) (MB)    (FT/S) (FT/S)
27.3N   84.2W                 74                N/A     2/ 4
CLEARWATER BEACH           72 72  310/  3/  4 1021.2S
MIDDLE TAMPA BAY           71      10/  5/  6 1021.4R
VENICE                     75 75   80/  4/  7 1020.7R

$$
FLZ066-069-070-075>078-162-262-165-265-231600-
SOUTHWEST FLORIDA AND KEYS
  
CITY           SKY/WX    TMP DP  RH WIND       PRES   REMARKS
PUNTA GORDA    FAIR      77  54  44 VRB6      30.15F                  
FT MYERS       FAIR      76  56  49 E8        30.13S                  
SOUTHWEST INTL FAIR      76  56  49 SE7       30.13S                  
NAPLES         FAIR      77  61  57 E6        30.12S                  
MARCO ISLAND   FAIR      78  57  48 VRB6      30.13S                  
IMMOKALEE      FAIR      81  59  47 VRB7      30.11S                  
MARATHON       FAIR      82  61  48 NE15      30.09F                  
KEY WEST NAS   FAIR      80  56  43 E10       30.10S                  
KEY WEST INTL  FAIR      80  58  46 NE12      30.11S                  

STATION/POSITION SKY/WX   TEMP    WIND        PRES    WAVE   SWELL
                          AIR SEA DIR/SP/G            HT/PER HT/PER
                          (F)     (DEG/KT/KT) (MB)    (FT/S) (FT/S)
NAPLES                     77 76  100/  4/  9 1020.1R
DRY TORTUGAS               76      90/ 13/ 14 1019.6R
SAND KEY                   75                 1019.4S
SOMBRERO KEY               74                 1018.5F

$$
FLZ067-068-071>074-168-172>174-231600-
SOUTHEAST FLORIDA 
  
CITY           SKY/WX    TMP DP  RH WIND       PRES   REMARKS
W PALM BEACH   FAIR      79  61  53 E10       30.13R                  
BOCA RATON     PTSUNNY   81  61  50 SE14      30.12R                  
FT LAUDER-EXEC FAIR      77  59  53 E10       30.11S                  
FT LAUDERDALE  PTSUNNY   77  60  55 E9        30.11R                  
POMPANO BEACH  PTSUNNY   79  59  50 NE9       30.12R                  
PEMBROKE PINES PTSUNNY   77  58  51 E10       30.13S                  
OPA LOCKA      PTSUNNY   78  59  51 E10       30.12S                  
MIAMI          PTSUNNY   78  59  51 E14       30.11F                  
WEST KENDALL   FAIR      81  59  47 E13G18    30.11S                  
HOMESTEAD      FAIR      77  58  50 NE10      30.10S                  

STATION/POSITION SKY/WX   TEMP    WIND        PRES    WAVE   SWELL
                          AIR SEA DIR/SP/G            HT/PER HT/PER
                          (F)     (DEG/KT/KT) (MB)    (FT/S) (FT/S)
PORT EVERGLADES            76      80/  6/  9 1019.9R
VIRGINIA KEY               75 78   60/  9/ 11 1019.0F
LAKE WORTH                 74 77   60/  8/ 10 1021.2R
SETTLEMENT POINT           73      40/  9/ 10 1020.3R

$$